Temperature
23 23 23 22 22 22 23 23 23 22 21 20 19 18 17 17 16 16 15 15 15 15 15 15 15 15 15 15 15 15 15 15 15 14 14 14 14 14 14 14 14 13 13 13
22 22 22 21 21 21 21 21 22 21 20 20 18 17 17 16 16 15 15 14 14 14 14 14 14 14 14 14 14 14 14 14 14 14 14 14 14 14 14 14 14 13 13 13
23 22 22 22 21 21 21 21 21 21 20 19 18 17 16 16 15 14 14 13 13 13 13 13 14 14 14 14 14 14 13 13 14 14 14 14 13 13 13 14 13 13 13 13
23 22 21 21 20 20 20 19 20 19 19 18 17 16 15 15 14 14 13 13 13 13 13 13 13 13 13 13 13 13 13 13 13 13 13 13 13 13 13 13 13 13 13 13
23 22 22 20 19 19 20 19 19 19 18 17 16 16 16 14 13 13 12 12 12 12 12 12 12 12 12 12 12 12 12 12 12 12 13 13 13 13 13 13 13 13 13 13
22 22 22 21 19 18 19 19 18 18 17 16 16 18 17 14 13 12 12 12 12 12 12 12 12 12 12 12 12 12 12 12 12 12 12 12 12 13 13 13 13 13 13 13
21 22 22 19 17 18 19 20 17 17 16 16 16 17 15 13 12 12 12 12 12 11 11 11 11 11 11 11 11 11 11 11 11 11 11 12 12 12 12 12 12 12 12 13
21 21 21 17 17 19 19 17 16 16 16 15 15 14 13 12 12 11 11 11 11 11 11 11 11 11 11 11 11 11 11 11 11 11 11 11 11 12 12 12 12 12 12 12
20 20 17 16 17 16 16 16 16 15 15 14 13 13 12 12 11 11 11 11 11 10 10 10 11 10 10 10 10 10 10 10 10 10 10 10 10 11 11 11 11 11 11 12
18 18 16 15 15 14 15 15 14 14 13 13 13 12 12 11 11 11 11 10 10 10 10 10 10 10 10 10 10 10 10 10 10 10 10 10 10 10 10 10 10 11 11 11
18 17 15 15 14 14 13 13 13 13 13 12 12 12 11 11 11 10 10 10 10 10 9 9 10 9 9 9 9 9 9 9 9 9 9 9 9 9 9 10 10 10 10 10
18 17 17 16 14 13 13 13 12 12 12 12 11 11 11 10 10 10 10 10 9 9 9 9 9 9 9 9 9 9 9 9 9 9 9 9 9 9 9 9 9 10 10 10
16 14 14 14 13 13 13 12 12 12 11 11 11 10 10 10 10 9 9 9 9 9 9 9 9 8 8 8 8 8 8 8 8 8 8 8 8 8 8 9 9 9 10 10
13 13 13 13 12 12 12 12 11 11 11 11 10 10 10 9 9 9 9 9 9 8 8 8 8 8 8 8 8 7 8 8 7 7 7 7 8 8 8 8 8 9 9 9
12 12 13 12 12 11 11 11 11 11 10 10 10 9 9 9 9 9 9 8 8 8 8 8 8 8 7 7 7 7 7 7 7 7 7 7 7 7 7 7 8 8 8 9
12 11 11 11 11 11 11 10 10 10 10 10 9 9 9 9 8 8 8 8 8 8 8 7 7 7 7 7 6 6 6 6 6 6 6 7 7 7 7 7 7 7 8 8
11 11 11 11 11 10 10 10 10 10 10 9 9 9 8 8 8 8 8 8 7 7 7 7 7 7 6 6 6 6 6 6 6 6 6 6 6 6 6 6 7 7 7 7
11 11 11 11 10 10 10 10 9 9 9 9 8 8 8 8 8 8 7 7 7 7 7 7 6 6 6 6 6 6 6 6 6 6 6 6 6 6 6 6 6 6 7 7
10 10 10 10 10 9 9 9 9 9 8 8 8 8 8 7 7 7 7 7 7 6 6 6 6 6 6 6 5 5 5 5 5 5 6 6 6 6 6 6 6 6 6 6
10 10 9 9 9 9 9 8 8 8 8 8 7 7 7 7 7 7 6 6 6 6 6 6 5 5 5 5 5 5 5 5 5 5 5 5 5 5 5 5 6 6 6 6
9 9 9 9 8 8 8 8 8 8 7 7 7 7 7 6 6 6 6 6 6 6 5 5 5 5 5 5 4 4 4 5 5 5 5 5 5 5 5 5 5 5 5 5
9 8 8 8 8 8 8 7 7 7 7 7 6 6 6 6 6 6 6 5 5 5 5 5 5 4 4 4 4 4 4 4 4 4 4 4 4 4 4 4 4 5 5 5
8 8 8 8 7 7 7 7 7 7 6 6 6 6 6 6 5 5 5 5 5 5 4 4 4 4 4 4 4 4 4 4 4 4 4 4 4 4 4 4 4 4 4 4
7 7 7 7 7 7 7 7 6 6 6 6 6 6 5 5 5 5 5 5 5 4 4 4 4 4 3 3 4 4 4 4 4 4 4 4 4 4 4 4 4 4 4 4
7 7 6 6 6 6 6 6 6 6 6 6 5 5 5 5 5 5 4 4 4 4 4 4 3 3 3 3 3 4 4 4 3 3 3 3 3 3 3 3 3 3 3 3
6 6 6 6 6 6 6 6 6 5 5 5 5 5 5 5 4 4 4 4 4 4 4 3 3 3 3 3 3 3 3 3 3 3 3 3 3 3 3 3 3 3 3 3
5 5 5 5 5 5 5 5 5 5 5 5 4 4 4 4 4 4 4 4 4 3 3 3 3 3 3 3 3 3 3 3 3 3 3 3 3 3 3 3 3 3 3 3
Wind_Speed
1 1 1 1 2 4 4 3 4 3 4 4 3 3 4 5 7 9 10 11 11 11 10 10 10 10 9 8 7 6 5 5 6 7 7 7 7 7 8 8 9 9 8 8
3 3 3 2 3 4 3 2 3 4 4 4 3 3 4 6 7 9 10 10 10 11 11 11 11 10 10 9 9 7 6 6 6 7 7 7 8 8 8 8 9 9 9 9
4 4 4 5 4 6 5 4 5 5 3 5 3 2 3 5 7 8 9 10 10 10 10 10 10 10 10 10 9 8 7 7 7 7 8 8 8 8 9 9 9 9 10 10
4 5 7 2 3 3 5 4 3 2 5 5 3 3 3 4 6 7 9 9 10 10 10 10 10 10 10 9 9 8 8 8 8 8 8 9 9 9 10 10 9 9 10 11
5 6 4 3 4 5 5 4 4 4 5 4 3 4 2 4 5 7 8 8 9 9 9 10 10 10 10 10 10 9 9 10 10 9 9 10 9 9 9 9 10 10 10 11
6 6 5 3 6 4 4 5 6 6 6 4 3 4 1 3 5 6 7 8 9 9 9 9 10 10 10 10 10 10 10 11 11 11 10 11 11 11 9 9 10 10 10 11
9 7 4 5 6 7 6 2 8 6 6 5 3 2 2 3 4 6 7 8 8 8 8 9 10 10 10 11 11 12 11 12 11 11 11 11 11 10 10 9 10 11 11 11
6 8 4 7 7 6 2 6 7 6 5 4 1 1 1 3 4 6 7 8 8 8 8 9 9 10 11 11 12 12 12 12 12 12 11 10 10 11 10 10 10 11 11 11
4 1 5 6 5 3 4 5 5 5 4 3 2 1 2 4 5 6 7 8 8 9 9 9 10 10 12 12 13 13 13 12 12 13 11 11 11 11 10 9 9 10 10 10
3 4 5 5 5 4 4 4 4 4 4 3 3 2 3 4 5 6 7 8 8 9 10 10 11 11 12 13 13 13 14 13 12 12 12 12 10 10 9 9 9 10 10 10
6 5 5 6 7 6 5 4 4 4 4 3 3 3 4 5 6 6 7 8 8 9 10 12 12 12 12 13 14 14 15 13 13 12 12 12 11 10 11 11 10 11 11 10
6 6 6 6 6 7 6 6 5 4 4 4 4 5 5 6 6 7 8 9 9 10 11 12 13 13 13 13 14 14 14 13 11 11 11 11 12 12 11 12 13 15 15 15
3 4 3 4 6 7 7 6 5 5 5 5 5 5 6 7 7 7 8 10 10 11 12 13 13 14 14 14 14 14 15 14 12 12 11 11 12 12 12 11 12 14 15 15
5 5 5 6 6 7 7 6 6 6 6 5 5 6 6 7 8 9 9 10 11 12 13 13 14 14 14 14 15 15 15 14 13 11 11 12 12 12 12 12 12 11 10 12
8 8 6 5 6 6 6 6 6 6 6 6 6 6 7 8 9 10 10 11 11 12 13 13 14 15 14 15 15 16 14 12 12 12 12 12 12 12 12 13 12 12 11 9
7 7 7 7 8 7 7 8 8 8 7 7 7 8 8 9 10 10 11 11 12 13 13 14 15 15 15 15 16 14 13 15 15 13 12 12 12 12 12 12 12 12 11 10
9 9 9 9 8 8 8 8 9 8 8 8 9 9 9 10 11 11 11 11 12 13 14 14 15 15 15 15 15 13 13 14 16 14 13 13 13 13 13 12 12 12 11 11
9 8 8 8 8 8 8 8 8 9 9 9 9 9 10 11 12 12 12 12 13 14 14 14 14 15 16 16 15 13 13 14 13 13 13 13 13 14 13 13 13 13 12 11
7 7 7 7 7 7 8 8 8 8 8 8 9 10 11 11 12 12 13 13 14 15 15 14 15 16 16 16 15 13 14 15 15 14 14 14 14 14 13 13 13 13 12 11
5 5 6 6 6 7 7 7 7 7 8 8 9 10 11 12 12 13 13 13 13 13 15 15 16 16 16 16 15 14 15 16 16 15 15 14 14 14 13 13 13 13 13 12
5 5 6 6 6 7 7 8 7 8 8 8 10 11 12 12 13 13 13 13 14 13 14 16 14 14 14 15 17 15 15 16 16 15 15 15 15 14 14 14 13 13 13 12
5 6 6 7 7 7 7 7 8 8 9 9 10 11 12 13 13 13 14 13 13 13 13 13 13 15 17 19 16 16 16 16 15 15 15 15 14 14 14 14 13 13 12 12
6 7 7 7 8 8 8 8 9 9 10 11 12 12 13 13 12 12 13 12 13 14 13 14 16 20 23 18 15 16 16 16 16 15 15 15 14 14 14 14 13 13 12 12
8 8 8 8 8 9 10 10 10 10 11 12 12 13 13 12 12 12 12 13 14 15 14 15 18 21 21 15 15 15 15 15 15 15 15 15 14 13 13 13 13 13 12 14
9 9 9 9 9 9 11 11 11 12 12 11 13 13 12 11 12 12 13 14 14 15 14 16 19 20 17 14 15 15 15 15 15 15 15 15 14 13 13 13 12 12 12 12
9 9 9 10 10 9 9 10 10 10 10 11 11 11 10 10 11 11 11 13 16 15 14 14 15 15 14 14 14 15 15 15 16 15 14 14 14 14 13 12 14 12 12 12
10 9 9 9 10 10 9 10 10 11 10 11 12 11 11 11 11 11 13 12 13 13 13 13 13 14 14 13 14 14 14 14 14 14 13 13 12 12 12 13 12 11 11 11
Wind_Direction
74 90 158 187 187 192 220 251 244 190 164 143 118 79 47 37 33 28 24 20 17 13 10 6 4 0 357 351 344 330 316 306 299 295 295 284 275 267 265 261 258 256 255 253
177 151 165 192 211 196 201 205 181 162 154 118 117 94 53 37 28 22 17 11 8 5 3 359 357 354 351 347 342 331 319 312 310 302 297 290 281 273 268 262 260 256 253 250
222 180 218 236 227 207 192 190 194 203 167 144 146 111 50 33 25 17 9 3 359 357 355 351 349 347 344 341 338 331 324 321 316 309 300 293 285 278 269 261 257 255 251 248
230 215 238 99 92 168 173 165 172 132 130 153 155 145 79 40 20 9 2 356 353 349 347 345 346 345 340 340 339 335 330 325 320 311 303 297 291 281 274 269 261 254 253 248
228 234 240 178 172 176 187 185 178 169 151 149 141 167 127 37 9 0 354 350 347 344 342 342 344 343 339 340 339 335 331 325 321 314 306 297 290 282 276 272 266 257 253 250
220 234 243 153 147 175 198 197 167 173 164 162 182 234 299 15 356 353 351 347 344 341 341 343 343 340 336 336 338 335 329 322 319 315 307 299 291 287 280 270 265 263 257 251
226 236 238 119 142 170 206 175 151 172 172 178 206 315 17 353 344 344 344 342 340 338 339 338 336 334 332 333 333 330 323 318 315 313 308 301 296 290 283 273 267 263 259 252
214 226 219 138 161 193 125 112 149 166 174 185 196 47 351 329 330 332 335 337 336 334 334 333 332 330 328 328 327 324 319 314 312 311 309 305 300 293 285 277 268 263 260 256
224 221 93 156 164 126 133 150 157 169 175 184 191 245 302 316 322 325 327 329 329 328 326 327 328 327 322 324 323 321 317 313 311 309 308 306 303 296 287 279 271 266 261 258
224 205 175 177 177 174 175 172 171 175 180 193 223 264 293 307 315 320 322 324 323 320 322 325 325 321 319 320 319 318 316 313 311 310 309 309 305 297 289 283 276 271 267 262
229 205 193 201 197 187 179 177 178 186 201 221 244 268 286 297 305 312 316 317 317 317 318 318 320 319 319 320 319 315 314 311 310 309 307 304 300 295 287 280 278 276 273 269
234 207 207 197 188 191 191 194 197 203 221 240 256 268 281 290 298 303 309 314 314 314 313 314 317 317 319 319 317 314 313 311 308 306 303 301 300 298 283 271 271 266 266 266
242 182 203 185 187 196 206 208 212 222 231 245 259 268 278 287 292 297 304 310 312 312 311 311 313 314 317 317 315 311 310 309 305 303 301 299 299 299 298 291 270 260 259 257
206 192 204 202 204 206 211 215 223 233 240 248 259 268 277 284 290 294 300 306 308 308 308 309 310 312 316 317 312 308 308 306 302 298 296 296 295 295 294 294 295 291 274 256
208 213 214 205 202 206 212 217 226 236 243 252 261 267 276 285 290 293 298 302 303 304 306 309 309 311 315 314 311 308 307 305 302 298 293 292 292 293 292 291 289 289 288 279
203 208 208 209 213 216 221 228 236 243 248 256 263 270 279 285 288 290 293 297 299 303 307 309 308 311 313 311 309 307 303 300 298 295 292 291 291 292 292 290 288 286 283 283
205 209 211 216 222 227 232 238 245 249 254 259 266 274 279 283 285 287 291 294 295 297 302 304 306 310 310 307 306 305 304 302 298 293 290 291 291 291 290 287 285 285 282 280
219 222 224 227 230 234 239 243 248 254 259 263 268 272 276 280 284 289 294 296 296 297 300 303 307 311 306 304 305 305 303 301 299 295 292 291 291 290 287 284 283 283 283 279
219 226 232 235 236 238 243 247 251 257 263 266 266 270 275 280 284 289 293 295 296 299 303 307 310 305 304 304 305 300 300 300 298 295 293 289 287 286 284 282 283 282 281 278
220 226 231 236 238 242 249 254 259 262 265 267 269 273 277 281 285 289 291 290 291 295 300 305 305 303 304 306 308 300 298 298 298 296 293 291 288 286 283 281 281 280 278 275
226 229 231 236 242 247 252 257 260 264 268 269 270 275 280 285 287 288 288 288 291 298 302 302 299 300 303 308 306 299 297 297 296 295 293 291 289 287 285 282 280 279 277 275
240 240 241 244 249 254 258 260 262 267 271 272 274 278 282 285 287 286 283 285 291 296 298 298 298 302 307 307 300 296 295 296 295 295 293 290 288 285 283 282 280 279 276 273
250 251 251 254 258 263 265 264 265 268 270 273 276 279 281 284 286 286 288 291 294 298 298 295 300 303 303 302 297 296 295 295 295 295 292 290 287 284 283 282 279 277 274 272
257 255 256 259 263 265 265 269 273 273 273 275 275 277 280 282 282 281 284 288 287 291 292 294 296 299 301 299 296 295 295 295 295 294 293 291 288 285 283 281 279 276 274 272
259 260 261 263 264 266 271 275 276 275 275 276 279 280 279 277 280 286 288 291 292 291 292 295 298 300 299 296 296 295 295 295 294 295 293 291 288 286 285 282 279 278 275 271
259 261 262 262 263 267 270 272 272 274 278 281 283 285 285 285 284 284 285 288 290 291 292 295 298 299 298 297 296 295 295 296 296 294 293 292 289 287 286 285 282 278 275 271
261 261 261 262 263 262 264 265 268 272 276 280 285 288 290 289 287 287 288 290 293 294 295 296 297 297 297 296 295 295 296 297 298 297 296 294 292 288 286 284 282 281 277 272
Height
1501 1503 1503 1506 1507 1507 1505 1504 1506 1510 1514 1520 1523 1526 1527 1527 1526 1524 1522 1520 1518 1516 1514 1512 1510 1508 1506 1504 1502 1501 1500 1498 1497 1496 1495 1493 1492 1491 1490 1490 1489 1489 1489 1488
1505 1505 1506 1508 1508 1508 1509 1509 1510 1513 1517 1520 1524 1526 1526 1526 1525 1523 1522 1520 1518 1516 1514 1512 1510 1507 1505 1503 1501 1499 1498 1496 1494 1493 1491 1490 1489 1488 1487 1486 1485 1485 1484 1484
1502 1505 1506 1508 1506 1507 1509 1509 1510 1512 1515 1520 1523 1524 1525 1525 1524 1523 1522 1520 1518 1516 1513 1511 1509 1506 1504 1502 1499 1497 1495 1493 1491 1490 1488 1487 1485 1484 1482 1481 1481 1480 1479 1479
1501 1506 1512 1507 1507 1507 1509 1511 1512 1514 1517 1520 1522 1524 1525 1524 1524 1522 1521 1519 1517 1515 1512 1510 1508 1505 1503 1500 1497 1495 1493 1491 1488 1486 1484 1483 1481 1480 1478 1478 1476 1475 1475 1474
1501 1503 1503 1507 1507 1508 1509 1511 1513 1514 1517 1520 1521 1521 1522 1523 1522 1521 1520 1518 1515 1513 1511 1509 1506 1503 1501 1498 1495 1493 1490 1488 1485 1483 1480 1478 1477 1475 1474 1472 1471 1470 1469 1469
1502 1504 1504 1500 1504 1508 1509 1510 1512 1514 1516 1518 1519 1516 1519 1521 1520 1519 1517 1515 1513 1511 1509 1506 1504 1501 1499 1496 1493 1490 1487 1485 1482 1480 1477 1474 1472 1470 1469 1467 1466 1465 1464 1463
1499 1499 1494 1502 1506 1508 1510 1504 1510 1512 1514 1516 1516 1517 1519 1519 1518 1517 1515 1513 1511 1509 1506 1504 1501 1499 1496 1493 1490 1487 1484 1481 1478 1476 1473 1470 1467 1465 1463 1462 1460 1459 1458 1457
1497 1499 1499 1503 1504 1504 1503 1507 1509 1511 1513 1515 1516 1517 1517 1517 1516 1514 1513 1510 1508 1506 1504 1501 1499 1496 1493 1490 1487 1484 1480 1477 1474 1471 1469 1466 1462 1460 1458 1456 1454 1453 1452 1451
1493 1496 1499 1502 1502 1504 1506 1507 1509 1511 1512 1514 1514 1515 1515 1514 1513 1512 1510 1508 1506 1503 1501 1498 1496 1493 1490 1487 1483 1480 1477 1473 1470 1467 1464 1461 1458 1455 1453 1451 1449 1448 1447 1445
1496 1496 1500 1502 1503 1504 1505 1507 1508 1510 1511 1512 1512 1512 1512 1511 1510 1509 1507 1505 1503 1500 1498 1495 1492 1489 1486 1483 1480 1476 1473 1469 1466 1463 1459 1456 1453 1451 1448 1446 1444 1442 1441 1440
1493 1496 1499 1500 1501 1503 1504 1505 1507 1508 1509 1509 1510 1509 1509 1508 1507 1506 1504 1501 1499 1497 1494 1491 1488 1485 1482 1479 1475 1472 1468 1465 1461 1458 1454 1451 1448 1445 1442 1440 1439 1436 1435 1434
1488 1491 1493 1496 1498 1500 1502 1503 1504 1505 1506 1506 1507 1506 1506 1505 1503 1502 1500 1498 1495 1493 1490 1487 1484 1481 1478 1475 1471 1468 1464 1460 1456 1453 1449 1446 1442 1439 1436 1434 1431 1429 1427 1426
1489 1491 1492 1494 1496 1498 1500 1501 1502 1502 1503 1503 1503 1502 1502 1501 1499 1498 1496 1494 1491 1489 1486 1483 1480 1477 1474 1470 1467 1463 1459 1455 1451 1448 1444 1440 1437 1433 1429 1425 1423 1421 1419 1418
1488 1489 1491 1492 1494 1495 1497 1498 1498 1499 1499 1499 1499 1498 1498 1496 1495 1493 1492 1490 1487 1484 1481 1478 1475 1472 1469 1465 1461 1458 1454 1450 1446 1442 1439 1435 1432 1428 1424 1420 1416 1413 1412 1410
1485 1487 1488 1489 1491 1492 1493 1494 1495 1495 1495 1495 1495 1494 1493 1492 1490 1489 1487 1485 1482 1479 1476 1473 1470 1466 1463 1459 1456 1452 1448 1444 1440 1437 1433 1430 1426 1422 1418 1415 1411 1408 1405 1403
1482 1484 1485 1486 1487 1488 1489 1490 1490 1490 1490 1490 1490 1489 1488 1487 1485 1483 1481 1479 1477 1474 1471 1468 1464 1461 1457 1453 1449 1445 1442 1438 1434 1430 1427 1423 1420 1416 1413 1409 1406 1402 1399 1397
1478 1479 1481 1482 1483 1484 1484 1485 1485 1485 1485 1485 1485 1484 1483 1481 1480 1478 1476 1473 1471 1468 1465 1462 1458 1455 1451 1447 1444 1440 1435 1431 1427 1424 1420 1417 1414 1410 1406 1403 1399 1396 1393 1391
1474 1476 1477 1478 1479 1479 1480 1480 1480 1480 1480 1480 1479 1478 1477 1476 1474 1472 1469 1467 1465 1462 1459 1456 1452 1449 1445 1441 1438 1433 1429 1425 1421 1417 1413 1410 1406 1403 1399 1396 1392 1389 1386 1384
1470 1472 1473 1474 1474 1475 1475 1475 1475 1475 1475 1474 1474 1473 1471 1470 1468 1466 1464 1461 1458 1455 1452 1449 1446 1442 1438 1435 1431 1427 1422 1418 1414 1410 1406 1402 1398 1395 1392 1389 1385 1382 1379 1377
1467 1468 1469 1469 1470 1470 1470 1471 1471 1470 1470 1469 1468 1467 1465 1464 1462 1460 1457 1455 1452 1449 1446 1442 1438 1435 1432 1428 1424 1420 1416 1411 1407 1402 1398 1394 1390 1387 1384 1380 1377 1374 1372 1369
1464 1464 1465 1465 1466 1466 1466 1466 1465 1465 1464 1463 1462 1461 1459 1457 1455 1453 1450 1447 1445 1442 1439 1435 1431 1428 1424 1420 1416 1412 1408 1404 1399 1395 1390 1386 1382 1379 1375 1372 1369 1366 1363 1361
1460 1461 1461 1461 1461 1461 1461 1461 1460 1459 1458 1457 1456 1455 1453 1451 1448 1446 1443 1441 1438 1435 1431 1428 1424 1421 1417 1412 1408 1404 1400 1396 1391 1387 1382 1378 1374 1370 1367 1363 1360 1357 1354 1352
1457 1457 1457 1457 1456 1456 1455 1455 1454 1453 1452 1451 1450 1448 1446 1444 1442 1439 1436 1433 1431 1427 1424 1420 1417 1412 1408 1404 1400 1396 1392 1388 1383 1379 1374 1370 1365 1362 1358 1354 1351 1348 1346 1343
1452 1452 1452 1452 1451 1451 1450 1449 1448 1447 1446 1445 1443 1441 1439 1437 1434 1432 1429 1425 1422 1419 1416 1412 1408 1404 1400 1396 1392 1388 1383 1379 1374 1370 1365 1361 1357 1353 1349 1346 1343 1340 1337 1334
1447 1446 1446 1446 1445 1444 1444 1443 1442 1441 1439 1437 1436 1434 1432 1429 1427 1424 1421 1418 1415 1411 1408 1404 1400 1396 1392 1388 1384 1380 1375 1371 1366 1361 1356 1352 1348 1344 1341 1337 1334 1331 1327 1325
1441 1440 1440 1439 1439 1438 1437 1436 1435 1433 1432 1430 1428 1426 1424 1422 1419 1416 1413 1410 1407 1404 1400 1396 1392 1388 1384 1380 1376 1372 1367 1362 1358 1353 1348 1344 1340 1336 1332 1328 1325 1322 1319 1316
1434 1433 1433 1432 1431 1430 1429 1428 1427 1426 1424 1423 1421 1419 1417 1415 1412 1409 1406 1403 1400 1396 1393 1389 1385 1381 1377 1373 1368 1364 1360 1355 1351 1346 1341 1337 1332 1328 1324 1321 1317 1314 1311 1308